iso_date,epoch_date,Year,Hour,Min,DOY,POS_DOY,Lat,Lon,BP,Ts,Ta,has_bp,has_ts,has_ta,BuoyID,Buoy_Type,Buoy_Owner,Logistics,Hemisphere
2019-10-05T00:22:10Z,1570234931,2019,0,22,278.0154,278.0154,85.01006,132.79842,1024.9,-10.22,-10.69,yes,yes,yes,300434063386850,SIMB3,Dart,MOSAiC,North
2019-10-05T03:00:51Z,1570244452,2019,3,0,278.1256,278.1256,85.01254,132.74689,1025.8,-1.96,-14.19,yes,yes,yes,300434063386850,SIMB3,Dart,MOSAiC,North
2019-10-05T07:03:30Z,1570259010,2019,7,3,278.2941,278.2941,85.01707,132.6918,1026.6,-1.97,-10.12,yes,yes,yes,300434063386850,SIMB3,Dart,MOSAiC,North
2019-10-05T11:01:58Z,1570273318,2019,11,1,278.4597,278.4597,85.02537,132.69034,1026.8,-1.96,-6.81,yes,yes,yes,300434063386850,SIMB3,Dart,MOSAiC,North
2019-10-05T15:01:52Z,1570287712,2019,15,1,278.6263,278.6263,85.02808,132.71561,1027.3,-1.99,-6.31,yes,yes,yes,300434063386850,SIMB3,Dart,MOSAiC,North
2019-10-05T19:01:37Z,1570302098,2019,19,1,278.7928,278.7928,85.0289,132.71922,1027.4,-2.01,-6.31,yes,yes,yes,300434063386850,SIMB3,Dart,MOSAiC,North
2019-10-05T23:01:06Z,1570316466,2019,23,1,278.9591,278.9591,85.02934,132.76016,1027.7,-1.98,-7.88,yes,yes,yes,300434063386850,SIMB3,Dart,MOSAiC,North
2019-10-06T03:01:17Z,1570330878,2019,3,1,279.1259,279.1259,85.02593,132.78343,1028.4,-1.96,-7.38,yes,yes,yes,300434063386850,SIMB3,Dart,MOSAiC,North
2019-10-06T07:01:29Z,1570345289,2019,7,1,279.2927,279.2927,85.02345,132.80475,1028.7,-1.99,-6.94,yes,yes,yes,300434063386850,SIMB3,Dart,MOSAiC,North
2019-10-06T11:05:25Z,1570359925,2019,11,5,279.4621,279.4621,85.02286,132.87265,1027.7,-1.98,-6.56,yes,yes,yes,300434063386850,SIMB3,Dart,MOSAiC,North
2019-10-06T15:01:00Z,1570374060,2019,15,1,279.6257,279.6257,85.0192,132.97918,1026.7,-2.04,-6.81,yes,yes,yes,300434063386850,SIMB3,Dart,MOSAiC,North
2019-10-06T19:01:46Z,1570388507,2019,19,1,279.7929,279.7929,85.01302,133.07123,1026.3,-1.99,-7.12,yes,yes,yes,300434063386850,SIMB3,Dart,MOSAiC,North
2019-10-06T23:01:32Z,1570402892,2019,23,1,279.9594,279.9594,85.00904,133.20599,1024.5,-2.03,-7.38,yes,yes,yes,300434063386850,SIMB3,Dart,MOSAiC,North
2019-10-07T03:02:26Z,1570417347,2019,3,2,280.1267,280.1267,85.00078,133.35832,1023.3,-1.98,-7.12,yes,yes,yes,300434063386850,SIMB3,Dart,MOSAiC,North
2019-10-07T07:01:37Z,1570431698,2019,7,1,280.2928,280.2928,84.99146,133.52963,1021.6,-1.98,-8.0,yes,yes,yes,300434063386850,SIMB3,Dart,MOSAiC,North
2019-10-07T11:01:49Z,1570446109,2019,11,1,280.4596,280.4596,84.97942,133.77102,1019.8,-2.01,-8.06,yes,yes,yes,300434063386850,SIMB3,Dart,MOSAiC,North
2019-10-07T15:01:43Z,1570460504,2019,15,1,280.6262,280.6262,84.96504,134.01541,1017.3,-1.96,-7.69,yes,yes,yes,300434063386850,SIMB3,Dart,MOSAiC,North
2019-10-07T19:01:37Z,1570474898,2019,19,1,280.7928,280.7928,84.95236,134.34184,1013.9,-2.01,-4.94,yes,yes,yes,300434063386850,SIMB3,Dart,MOSAiC,North
2019-10-07T23:03:24Z,1570489404,2019,23,3,280.9607,280.9607,84.93447,134.74867,1009.3,-2.02,-3.19,yes,yes,yes,300434063386850,SIMB3,Dart,MOSAiC,North
2019-10-08T03:01:43Z,1570503704,2019,3,1,281.1262,281.1262,84.91026,135.0531,1006.2,-1.99,-2.12,yes,yes,yes,300434063386850,SIMB3,Dart,MOSAiC,North
2019-10-08T07:04:22Z,1570518262,2019,7,4,281.2947,281.2947,84.88461,135.14531,1005.6,-2.02,-4.25,yes,yes,yes,300434063386850,SIMB3,Dart,MOSAiC,North
2019-10-08T11:02:06Z,1570532527,2019,11,2,281.4598,281.4598,84.86534,135.13005,1006.1,-2.04,-7.25,yes,yes,yes,300434063386850,SIMB3,Dart,MOSAiC,North
2019-10-08T15:02:44Z,1570546964,2019,15,2,281.6269,281.6269,84.85081,135.12291,1007.1,-2.01,-7.25,yes,yes,yes,300434063386850,SIMB3,Dart,MOSAiC,North
2019-10-08T19:02:21Z,1570561341,2019,19,2,281.7933,281.7933,84.83721,135.04792,1008.3,-1.99,-7.56,yes,yes,yes,300434063386850,SIMB3,Dart,MOSAiC,North
2019-10-08T23:01:14Z,1570575675,2019,23,1,281.9592,281.9592,84.83292,134.95669,1009.4,-2.01,-11.0,yes,yes,yes,300434063386850,SIMB3,Dart,MOSAiC,North
2019-10-09T03:01:26Z,1570590086,2019,3,1,282.126,282.126,84.83082,134.92346,1010.4,-2.04,-12.31,yes,yes,yes,300434063386850,SIMB3,Dart,MOSAiC,North
2019-10-09T07:01:46Z,1570604507,2019,7,1,282.2929,282.2929,84.82624,134.86787,1010.2,-2.03,-11.38,yes,yes,yes,300434063386850,SIMB3,Dart,MOSAiC,North
2019-10-09T11:03:41Z,1570619022,2019,11,3,282.4609,282.4609,84.82654,134.82749,1009.8,-2.03,-11.06,yes,yes,yes,300434063386850,SIMB3,Dart,MOSAiC,North
2019-10-09T15:01:26Z,1570633286,2019,15,1,282.626,282.626,84.83117,134.78408,1009.1,-2.05,-11.81,yes,yes,yes,300434063386850,SIMB3,Dart,MOSAiC,North
2019-10-09T19:03:12Z,1570647793,2019,19,3,282.7939,282.7939,84.8339,134.64816,1010.3,-2.04,-12.44,yes,yes,yes,300434063386850,SIMB3,Dart,MOSAiC,North
2019-10-09T23:01:06Z,1570662066,2019,23,1,282.9591,282.9591,84.83904,134.46354,1012.3,-2.01,-9.0,yes,yes,yes,300434063386850,SIMB3,Dart,MOSAiC,North
2019-10-10T03:01:26Z,1570676486,2019,3,1,283.126,283.126,84.84119,134.33104,1015.5,-2.03,-12.31,yes,yes,yes,300434063386850,SIMB3,Dart,MOSAiC,North
2019-10-10T07:01:29Z,1570690889,2019,7,1,283.2927,283.2927,84.8358,134.23082,1017.5,-2.01,-11.81,yes,yes,yes,300434063386850,SIMB3,Dart,MOSAiC,North
2019-10-10T11:01:58Z,1570705318,2019,11,1,283.4597,283.4597,84.8315,134.18026,1018.7,-2.03,-16.0,yes,yes,yes,300434063386850,SIMB3,Dart,MOSAiC,North
2019-10-10T15:02:18Z,1570719738,2019,15,2,283.6266,283.6266,84.82617,134.2696,1017.8,-2.03,-15.0,yes,yes,yes,300434063386850,SIMB3,Dart,MOSAiC,North
2019-10-10T19:01:46Z,1570734107,2019,19,1,283.7929,283.7929,84.81086,134.41318,1016.2,-2.01,-16.06,yes,yes,yes,300434063386850,SIMB3,Dart,MOSAiC,North
2019-10-10T23:03:41Z,1570748622,2019,23,3,283.9609,283.9609,84.79421,134.49317,1016.0,-2.03,-16.19,yes,yes,yes,300434063386850,SIMB3,Dart,MOSAiC,North
2019-10-11T03:01:35Z,1570762895,2019,3,1,284.1261,284.1261,84.77929,134.60754,1015.5,-2.03,-14.38,yes,yes,yes,300434063386850,SIMB3,Dart,MOSAiC,North
2019-10-11T11:01:49Z,1570791709,2019,11,1,284.4596,284.4596,84.75566,134.70869,1013.9,-1.99,-11.75,yes,yes,yes,300434063386850,SIMB3,Dart,MOSAiC,North
2019-10-11T15:03:18Z,1570806199,2019,15,3,284.6273,284.6273,84.75066,134.81096,1012.5,-2.01,-15.31,yes,yes,yes,300434063386850,SIMB3,Dart,MOSAiC,North
2019-10-11T19:01:55Z,1570820515,2019,19,1,284.793,284.793,84.75083,134.81845,1009.4,-2.03,-10.75,yes,yes,yes,300434063386850,SIMB3,Dart,MOSAiC,North
2019-10-11T23:00:57Z,1570834858,2019,23,1,284.959,284.959,84.7654,134.8231,1005.4,-1.98,-9.94,yes,yes,yes,300434063386850,SIMB3,Dart,MOSAiC,North
2019-10-12T03:01:09Z,1570849269,2019,3,1,285.1258,285.1258,84.77673,134.78758,1001.2,-2.03,-9.38,yes,yes,yes,300434063386850,SIMB3,Dart,MOSAiC,North
2019-10-12T07:01:29Z,1570863689,2019,7,1,285.2927,285.2927,84.78039,134.63947,999.9,-2.05,-14.69,yes,yes,yes,300434063386850,SIMB3,Dart,MOSAiC,North
2019-10-12T11:02:41Z,1570878161,2019,11,2,285.4602,285.4602,84.78598,134.47277,1000.4,-2.02,-16.25,yes,yes,yes,300434063386850,SIMB3,Dart,MOSAiC,North
2019-10-12T15:00:51Z,1570892452,2019,15,0,285.6256,285.6256,84.78509,134.37739,1001.5,-2.05,-17.25,yes,yes,yes,300434063386850,SIMB3,Dart,MOSAiC,North
2019-10-12T19:02:38Z,1570906958,2019,19,2,285.7935,285.7935,84.78178,134.19902,1002.9,-2.03,-14.19,yes,yes,yes,300434063386850,SIMB3,Dart,MOSAiC,North
2019-10-12T23:01:23Z,1570921284,2019,23,1,285.9593,285.9593,84.78111,134.04117,1004.2,-2.04,-22.31,yes,yes,yes,300434063386850,SIMB3,Dart,MOSAiC,North
2019-10-13T03:01:52Z,1570935712,2019,3,1,286.1263,286.1263,84.77494,133.93517,1004.6,-2.03,-22.81,yes,yes,yes,300434063386850,SIMB3,Dart,MOSAiC,North
2019-10-13T07:01:20Z,1570950081,2019,7,1,286.2926,286.2926,84.76758,133.81123,1005.4,-2.02,-25.81,yes,yes,yes,300434063386850,SIMB3,Dart,MOSAiC,North
2019-10-13T11:01:40Z,1570964501,2019,11,1,286.4595,286.4595,84.75924,133.79094,1003.5,-2.03,-21.25,yes,yes,yes,300434063386850,SIMB3,Dart,MOSAiC,North
2019-10-13T15:01:17Z,1570978878,2019,15,1,286.6259,286.6259,84.74236,133.80592,1002.5,-2.03,-17.25,yes,yes,yes,300434063386850,SIMB3,Dart,MOSAiC,North
2019-10-13T19:01:37Z,1570993298,2019,19,1,286.7928,286.7928,84.72462,133.69141,1003.6,-2.03,-14.5,yes,yes,yes,300434063386850,SIMB3,Dart,MOSAiC,North
2019-10-13T23:03:41Z,1571007822,2019,23,3,286.9609,286.9609,84.712,133.59125,1005.2,-2.05,-15.06,yes,yes,yes,300434063386850,SIMB3,Dart,MOSAiC,North
2019-10-14T03:01:26Z,1571022086,2019,3,1,287.126,287.126,84.70006,133.54059,1007.1,-2.04,-15.56,yes,yes,yes,300434063386850,SIMB3,Dart,MOSAiC,North
2019-10-14T19:01:46Z,1571079707,2019,19,1,287.7929,287.7929,84.68117,133.40011,1010.9,-2.05,-24.0,yes,yes,yes,300434063386850,SIMB3,Dart,MOSAiC,North
2019-10-14T23:01:32Z,1571094092,2019,23,1,287.9594,287.9594,84.68554,133.3659,1011.9,-2.05,-20.56,yes,yes,yes,300434063386850,SIMB3,Dart,MOSAiC,North
2019-10-15T03:01:26Z,1571108486,2019,3,1,288.126,288.126,84.68698,133.37419,1013.3,-2.05,-24.38,yes,yes,yes,300434063386850,SIMB3,Dart,MOSAiC,North
2019-10-15T07:01:55Z,1571122915,2019,7,1,288.293,288.293,84.68682,133.29602,1014.6,-2.04,-24.25,yes,yes,yes,300434063386850,SIMB3,Dart,MOSAiC,North
2019-10-15T11:04:42Z,1571137482,2019,11,4,288.4616,288.4616,84.69052,133.21678,1015.6,-2.05,-20.75,yes,yes,yes,300434063386850,SIMB3,Dart,MOSAiC,North
2019-10-15T15:01:09Z,1571151669,2019,15,1,288.6258,288.6258,84.68985,133.14949,1016.1,-2.05,-16.44,yes,yes,yes,300434063386850,SIMB3,Dart,MOSAiC,North
2019-10-15T19:03:12Z,1571166193,2019,19,3,288.7939,288.7939,84.68797,132.94142,1016.8,-2.05,-15.31,yes,yes,yes,300434063386850,SIMB3,Dart,MOSAiC,North
2019-10-15T23:01:32Z,1571180492,2019,23,1,288.9594,288.9594,84.69094,132.76401,1016.9,-2.03,-15.75,yes,yes,yes,300434063386850,SIMB3,Dart,MOSAiC,North
2019-10-16T03:02:18Z,1571194938,2019,3,2,289.1266,289.1266,84.68838,132.66356,1017.1,-2.05,-17.5,yes,yes,yes,300434063386850,SIMB3,Dart,MOSAiC,North
2019-10-16T07:01:46Z,1571209307,2019,7,1,289.2929,289.2929,84.68534,132.49075,1017.0,-2.03,-15.12,yes,yes,yes,300434063386850,SIMB3,Dart,MOSAiC,North
2019-10-16T11:01:40Z,1571223701,2019,11,1,289.4595,289.4595,84.68854,132.33455,1015.7,-2.05,-13.19,yes,yes,yes,300434063386850,SIMB3,Dart,MOSAiC,North
2019-10-16T15:01:00Z,1571238060,2019,15,1,289.6257,289.6257,84.6872,132.26187,1014.8,-2.03,-12.12,yes,yes,yes,300434063386850,SIMB3,Dart,MOSAiC,North
2019-10-16T19:01:37Z,1571252498,2019,19,1,289.7928,289.7928,84.68301,132.11846,1013.6,-2.03,-11.19,yes,yes,yes,300434063386850,SIMB3,Dart,MOSAiC,North
2019-10-16T23:01:23Z,1571266884,2019,23,1,289.9593,289.9593,84.68239,131.97969,1012.4,-2.01,-11.62,yes,yes,yes,300434063386850,SIMB3,Dart,MOSAiC,North
2019-10-17T03:01:17Z,1571281278,2019,3,1,290.1259,290.1259,84.68094,131.96477,1012.1,-2.03,-12.44,yes,yes,yes,300434063386850,SIMB3,Dart,MOSAiC,North
2019-10-17T07:03:21Z,1571295802,2019,7,3,290.294,290.294,84.67766,131.92575,1011.7,-2.05,-12.62,yes,yes,yes,300434063386850,SIMB3,Dart,MOSAiC,North
2019-10-17T11:03:24Z,1571310204,2019,11,3,290.4607,290.4607,84.67962,131.92522,1011.7,-2.04,-13.12,yes,yes,yes,300434063386850,SIMB3,Dart,MOSAiC,North
2019-10-17T19:02:03Z,1571338924,2019,19,2,290.7931,290.7931,84.69139,132.02765,1012.2,-2.05,-14.38,yes,yes,yes,300434063386850,SIMB3,Dart,MOSAiC,North
2019-10-17T23:01:32Z,1571353292,2019,23,1,290.9594,290.9594,84.70801,132.05962,1012.2,-2.03,-15.62,yes,yes,yes,300434063386850,SIMB3,Dart,MOSAiC,North
2019-10-18T03:01:17Z,1571367678,2019,3,1,291.1259,291.1259,84.72555,132.1403,1012.2,-2.05,-15.88,yes,yes,yes,300434063386850,SIMB3,Dart,MOSAiC,North
2019-10-18T07:01:55Z,1571382115,2019,7,1,291.293,291.293,84.7439,132.14499,1012.0,-2.01,-14.5,yes,yes,yes,300434063386850,SIMB3,Dart,MOSAiC,North
2019-10-18T11:02:49Z,1571396570,2019,11,2,291.4603,291.4603,84.77044,132.16945,1011.7,-2.01,-13.44,yes,yes,yes,300434063386850,SIMB3,Dart,MOSAiC,North
2019-10-18T15:01:09Z,1571410869,2019,15,1,291.6258,291.6258,84.79453,132.25699,1011.8,-2.05,-13.44,yes,yes,yes,300434063386850,SIMB3,Dart,MOSAiC,North
2019-10-18T19:03:38Z,1571425419,2019,19,3,291.7942,291.7942,84.81665,132.26036,1012.2,-2.04,-12.88,yes,yes,yes,300434063386850,SIMB3,Dart,MOSAiC,North
2019-10-18T23:01:32Z,1571439692,2019,23,1,291.9594,291.9594,84.83996,132.25688,1012.5,-2.01,-13.38,yes,yes,yes,300434063386850,SIMB3,Dart,MOSAiC,North
2019-10-19T03:01:17Z,1571454078,2019,3,1,292.1259,292.1259,84.85064,132.2425,1012.6,-2.02,-17.62,yes,yes,yes,300434063386850,SIMB3,Dart,MOSAiC,North
2019-10-19T07:01:37Z,1571468498,2019,7,1,292.2928,292.2928,84.86158,132.149,1012.0,-2.04,-12.5,yes,yes,yes,300434063386850,SIMB3,Dart,MOSAiC,North
2019-10-19T11:01:14Z,1571482875,2019,11,1,292.4592,292.4592,84.87682,132.05558,1010.8,-2.03,-11.31,yes,yes,yes,300434063386850,SIMB3,Dart,MOSAiC,North
2019-10-19T15:01:17Z,1571497278,2019,15,1,292.6259,292.6259,84.88332,132.00252,1009.7,-2.05,-10.69,yes,yes,yes,300434063386850,SIMB3,Dart,MOSAiC,North
2019-10-19T19:01:12Z,1571511672,2019,19,1,292.7925,292.7925,84.88772,131.90294,1008.2,-2.03,-11.69,yes,yes,yes,300434063386850,SIMB3,Dart,MOSAiC,North
2019-10-19T23:01:06Z,1571526066,2019,23,1,292.9591,292.9591,84.89865,131.82492,1007.0,-2.05,-12.44,yes,yes,yes,300434063386850,SIMB3,Dart,MOSAiC,North
2019-10-20T03:01:09Z,1571540469,2019,3,1,293.1258,293.1258,84.90694,131.80075,1006.2,-2.04,-11.75,yes,yes,yes,300434063386850,SIMB3,Dart,MOSAiC,North
2019-10-20T07:01:12Z,1571554872,2019,7,1,293.2925,293.2925,84.9165,131.74956,1005.4,-2.05,-14.38,yes,yes,yes,300434063386850,SIMB3,Dart,MOSAiC,North
2019-10-20T11:02:15Z,1571569335,2019,11,2,293.4599,293.4599,84.93426,131.74714,1006.1,-2.0,-8.56,yes,yes,yes,300434063386850,SIMB3,Dart,MOSAiC,North
2019-10-20T15:02:52Z,1571583773,2019,15,2,293.627,293.627,84.95042,131.87628,1009.1,-2.01,-14.31,yes,yes,yes,300434063386850,SIMB3,Dart,MOSAiC,North
2019-10-20T19:02:29Z,1571598150,2019,19,2,293.7934,293.7934,84.96836,131.86042,1010.0,-2.05,-9.56,yes,yes,yes,300434063386850,SIMB3,Dart,MOSAiC,North
2019-10-20T23:01:23Z,1571612484,2019,23,1,293.9593,293.9593,84.99918,131.81505,1011.0,-2.01,-8.38,yes,yes,yes,300434063386850,SIMB3,Dart,MOSAiC,North
2019-10-21T03:01:17Z,1571626878,2019,3,1,294.1259,294.1259,85.02196,131.76854,1011.9,-1.99,-9.62,yes,yes,yes,300434063386850,SIMB3,Dart,MOSAiC,North
2019-10-21T07:01:37Z,1571641298,2019,7,1,294.2928,294.2928,85.04534,131.58758,1012.2,-2.05,-8.25,yes,yes,yes,300434063386850,SIMB3,Dart,MOSAiC,North
2019-10-21T11:03:15Z,1571655796,2019,11,3,294.4606,294.4606,85.07442,131.39853,1012.2,-2.03,-8.19,yes,yes,yes,300434063386850,SIMB3,Dart,MOSAiC,North
2019-10-21T15:00:51Z,1571670052,2019,15,0,294.6256,294.6256,85.09653,131.22774,1012.2,-2.03,-7.62,yes,yes,yes,300434063386850,SIMB3,Dart,MOSAiC,North
2019-10-21T19:05:05Z,1571684705,2019,19,5,294.7952,294.7952,85.1219,130.9908,1012.5,-2.05,-6.38,yes,yes,yes,300434063386850,SIMB3,Dart,MOSAiC,North
2019-10-21T23:01:23Z,1571698884,2019,23,1,294.9593,294.9593,85.1537,130.76306,1013.1,-1.99,-6.25,yes,yes,yes,300434063386850,SIMB3,Dart,MOSAiC,North
2019-10-22T03:02:35Z,1571713356,2019,3,2,295.1268,295.1268,85.1783,130.53989,1013.7,-2.02,-7.44,yes,yes,yes,300434063386850,SIMB3,Dart,MOSAiC,North
2019-10-22T07:01:37Z,1571727698,2019,7,1,295.2928,295.2928,85.19623,130.25563,1013.6,-2.01,-8.62,yes,yes,yes,300434063386850,SIMB3,Dart,MOSAiC,North
2019-10-22T11:01:49Z,1571742109,2019,11,1,295.4596,295.4596,85.21382,129.9745,1012.7,-2.04,-9.0,yes,yes,yes,300434063386850,SIMB3,Dart,MOSAiC,North
2019-10-22T15:01:52Z,1571756512,2019,15,1,295.6263,295.6263,85.22854,129.75516,1013.1,-2.02,-8.25,yes,yes,yes,300434063386850,SIMB3,Dart,MOSAiC,North
2019-10-22T19:01:29Z,1571770889,2019,19,1,295.7927,295.7927,85.2413,129.51297,1013.3,-2.01,-8.62,yes,yes,yes,300434063386850,SIMB3,Dart,MOSAiC,North
2019-10-22T23:01:14Z,1571785275,2019,23,1,295.9592,295.9592,85.25474,129.2757,1013.8,-2.03,-10.12,yes,yes,yes,300434063386850,SIMB3,Dart,MOSAiC,North
2019-10-23T03:01:35Z,1571799695,2019,3,1,296.1261,296.1261,85.26293,129.07968,1014.2,-2.05,-10.75,yes,yes,yes,300434063386850,SIMB3,Dart,MOSAiC,North
2019-10-23T07:03:12Z,1571814193,2019,7,3,296.2939,296.2939,85.26833,128.8825,1014.9,-2.02,-14.56,yes,yes,yes,300434063386850,SIMB3,Dart,MOSAiC,North
2019-10-23T11:02:32Z,1571828553,2019,11,2,296.4601,296.4601,85.27602,128.75833,1014.8,-2.02,-12.69,yes,yes,yes,300434063386850,SIMB3,Dart,MOSAiC,North
2019-10-23T15:02:52Z,1571842973,2019,15,2,296.627,296.627,85.28218,128.64526,1014.4,-2.03,-11.75,yes,yes,yes,300434063386850,SIMB3,Dart,MOSAiC,North
2019-10-23T19:03:12Z,1571857393,2019,19,3,296.7939,296.7939,85.28941,128.49446,1014.0,-2.04,-14.19,yes,yes,yes,300434063386850,SIMB3,Dart,MOSAiC,North
2019-10-23T23:01:32Z,1571871692,2019,23,1,296.9594,296.9594,85.30264,128.34202,1013.5,-2.05,-10.94,yes,yes,yes,300434063386850,SIMB3,Dart,MOSAiC,North
2019-10-24T03:01:26Z,1571886086,2019,3,1,297.126,297.126,85.31496,128.19188,1012.6,-2.01,-11.25,yes,yes,yes,300434063386850,SIMB3,Dart,MOSAiC,North
2019-10-24T07:01:29Z,1571900489,2019,7,1,297.2927,297.2927,85.32423,127.97242,1012.0,-2.01,-12.44,yes,yes,yes,300434063386850,SIMB3,Dart,MOSAiC,North
2019-10-24T11:03:15Z,1571914996,2019,11,3,297.4606,297.4606,85.33682,127.72432,1011.1,-2.01,-11.88,yes,yes,yes,300434063386850,SIMB3,Dart,MOSAiC,North
2019-10-24T15:01:17Z,1571929278,2019,15,1,297.6259,297.6259,85.34729,127.51293,1010.8,-2.05,-15.19,yes,yes,yes,300434063386850,SIMB3,Dart,MOSAiC,North
2019-10-24T19:04:04Z,1571943845,2019,19,4,297.7945,297.7945,85.35328,127.3003,1010.3,-2.04,-14.62,yes,yes,yes,300434063386850,SIMB3,Dart,MOSAiC,North
2019-10-24T23:01:23Z,1571958084,2019,23,1,297.9593,297.9593,85.36038,127.13394,1010.0,-2.02,-15.94,yes,yes,yes,300434063386850,SIMB3,Dart,MOSAiC,North
2019-10-25T03:02:18Z,1571972538,2019,3,2,298.1266,298.1266,85.36325,127.04083,1010.9,-2.01,-20.19,yes,yes,yes,300434063386850,SIMB3,Dart,MOSAiC,North
2019-10-25T07:01:46Z,1571986907,2019,7,1,298.2929,298.2929,85.3643,126.92379,1011.6,-2.04,-21.81,yes,yes,yes,300434063386850,SIMB3,Dart,MOSAiC,North
2019-10-25T11:02:32Z,1572001353,2019,11,2,298.4601,298.4601,85.36688,126.82758,1012.4,-2.04,-19.12,yes,yes,yes,300434063386850,SIMB3,Dart,MOSAiC,North
2019-10-25T15:01:26Z,1572015686,2019,15,1,298.626,298.626,85.36798,126.7626,1013.2,-2.05,-18.06,yes,yes,yes,300434063386850,SIMB3,Dart,MOSAiC,North
2019-10-25T19:02:03Z,1572030124,2019,19,2,298.7931,298.7931,85.3675,126.67453,1014.4,-2.05,-21.5,yes,yes,yes,300434063386850,SIMB3,Dart,MOSAiC,North
2019-10-25T23:00:57Z,1572044458,2019,23,1,298.959,298.959,85.3694,126.59438,1015.4,-2.05,-20.31,yes,yes,yes,300434063386850,SIMB3,Dart,MOSAiC,North
2019-10-26T03:01:26Z,1572058886,2019,3,1,299.126,299.126,85.37099,126.54096,1017.0,-2.08,-19.94,yes,yes,yes,300434063386850,SIMB3,Dart,MOSAiC,North
2019-10-26T07:04:04Z,1572073445,2019,7,4,299.2945,299.2945,85.37264,126.44315,1018.4,-2.05,-23.5,yes,yes,yes,300434063386850,SIMB3,Dart,MOSAiC,North
2019-10-26T11:02:15Z,1572087735,2019,11,2,299.4599,299.4599,85.37722,126.35446,1020.1,-2.05,-25.56,yes,yes,yes,300434063386850,SIMB3,Dart,MOSAiC,North
2019-10-26T15:04:45Z,1572102285,2019,15,4,299.6283,299.6283,85.38197,126.29381,1021.6,-2.08,-24.75,yes,yes,yes,300434063386850,SIMB3,Dart,MOSAiC,North
2019-10-26T19:01:29Z,1572116489,2019,19,1,299.7927,299.7927,85.38717,126.18835,1023.1,-2.05,-25.25,yes,yes,yes,300434063386850,SIMB3,Dart,MOSAiC,North
2019-10-26T23:01:14Z,1572130875,2019,23,1,299.9592,299.9592,85.39616,126.08719,1024.2,-2.05,-25.69,yes,yes,yes,300434063386850,SIMB3,Dart,MOSAiC,North
2019-10-27T03:01:09Z,1572145269,2019,3,1,300.1258,300.1258,85.40542,126.01091,1025.3,-2.03,-25.81,yes,yes,yes,300434063386850,SIMB3,Dart,MOSAiC,North
2019-10-27T07:01:29Z,1572159689,2019,7,1,300.2927,300.2927,85.41482,125.90492,1026.1,-2.05,-25.5,yes,yes,yes,300434063386850,SIMB3,Dart,MOSAiC,North
2019-10-27T11:02:41Z,1572174161,2019,11,2,300.4602,300.4602,85.4271,125.80694,1027.0,-2.03,-24.25,yes,yes,yes,300434063386850,SIMB3,Dart,MOSAiC,North
2019-10-27T15:01:09Z,1572188469,2019,15,1,300.6258,300.6258,85.44028,125.71321,1027.7,-2.05,-23.81,yes,yes,yes,300434063386850,SIMB3,Dart,MOSAiC,North
2019-10-27T19:03:04Z,1572202984,2019,19,3,300.7938,300.7938,85.45465,125.55591,1027.6,-2.05,-18.69,yes,yes,yes,300434063386850,SIMB3,Dart,MOSAiC,North
2019-10-27T23:01:14Z,1572217275,2019,23,1,300.9592,300.9592,85.47217,125.40586,1027.8,-2.05,-14.12,yes,yes,yes,300434063386850,SIMB3,Dart,MOSAiC,North
2019-10-28T03:02:35Z,1572231756,2019,3,2,301.1268,301.1268,85.48956,125.29932,1028.9,-2.03,-12.88,yes,yes,yes,300434063386850,SIMB3,Dart,MOSAiC,North
2019-10-28T07:01:37Z,1572246098,2019,7,1,301.2928,301.2928,85.50677,125.1712,1030.4,-2.05,-14.81,yes,yes,yes,300434063386850,SIMB3,Dart,MOSAiC,North
2019-10-28T11:02:06Z,1572260527,2019,11,2,301.4598,301.4598,85.5226,125.05399,1030.7,-2.05,-12.19,yes,yes,yes,300434063386850,SIMB3,Dart,MOSAiC,North
2019-10-28T15:01:26Z,1572274886,2019,15,1,301.626,301.626,85.53543,124.92483,1031.0,-2.03,-11.81,yes,yes,yes,300434063386850,SIMB3,Dart,MOSAiC,North
2019-10-28T19:01:37Z,1572289298,2019,19,1,301.7928,301.7928,85.54816,124.73671,1030.9,-2.05,-16.25,yes,yes,yes,300434063386850,SIMB3,Dart,MOSAiC,North
2019-10-28T23:01:06Z,1572303666,2019,23,1,301.9591,301.9591,85.56113,124.56583,1030.4,-2.08,-14.44,yes,yes,yes,300434063386850,SIMB3,Dart,MOSAiC,North
2019-10-29T03:00:51Z,1572318052,2019,3,0,302.1256,302.1256,85.57142,124.41317,1030.3,-2.05,-19.56,yes,yes,yes,300434063386850,SIMB3,Dart,MOSAiC,North
2019-10-29T07:03:21Z,1572332602,2019,7,3,302.294,302.294,85.58323,124.20968,1030.0,-2.05,-20.75,yes,yes,yes,300434063386850,SIMB3,Dart,MOSAiC,North
2019-10-29T11:01:49Z,1572346909,2019,11,1,302.4596,302.4596,85.59561,124.0466,1029.8,-2.05,-19.12,yes,yes,yes,300434063386850,SIMB3,Dart,MOSAiC,North
2019-10-29T15:02:26Z,1572361347,2019,15,2,302.6267,302.6267,85.60547,123.90271,1030.2,-2.03,-17.69,yes,yes,yes,300434063386850,SIMB3,Dart,MOSAiC,North
2019-10-29T19:01:46Z,1572375707,2019,19,1,302.7929,302.7929,85.61537,123.72902,1030.2,-2.05,-20.19,yes,yes,yes,300434063386850,SIMB3,Dart,MOSAiC,North
2019-10-29T23:01:23Z,1572390084,2019,23,1,302.9593,302.9593,85.62655,123.57661,1030.2,-2.03,-15.19,yes,yes,yes,300434063386850,SIMB3,Dart,MOSAiC,North
2019-10-30T03:01:09Z,1572404469,2019,3,1,303.1258,303.1258,85.63486,123.43806,1030.4,-2.08,-15.88,yes,yes,yes,300434063386850,SIMB3,Dart,MOSAiC,North
2019-10-30T07:01:29Z,1572418889,2019,7,1,303.2927,303.2927,85.64454,123.25698,1030.3,-2.05,-15.81,yes,yes,yes,300434063386850,SIMB3,Dart,MOSAiC,North
2019-10-30T11:03:15Z,1572433396,2019,11,3,303.4606,303.4606,85.65367,123.11839,1030.3,-2.05,-16.19,yes,yes,yes,300434063386850,SIMB3,Dart,MOSAiC,North
2019-10-30T15:01:17Z,1572447678,2019,15,1,303.6259,303.6259,85.65943,122.98349,1031.0,-2.05,-20.69,yes,yes,yes,300434063386850,SIMB3,Dart,MOSAiC,North
2019-10-30T19:00:46Z,1572462046,2019,19,0,303.7922,303.7922,85.66828,122.80622,1030.8,-2.05,-20.69,yes,yes,yes,300434063386850,SIMB3,Dart,MOSAiC,North
2019-10-30T23:01:32Z,1572476492,2019,23,1,303.9594,303.9594,85.67716,122.6677,1031.3,-2.05,-23.56,yes,yes,yes,300434063386850,SIMB3,Dart,MOSAiC,North
2019-10-31T03:04:10Z,1572491051,2019,3,4,304.1279,304.1279,85.68334,122.55066,1031.8,-2.03,-21.12,yes,yes,yes,300434063386850,SIMB3,Dart,MOSAiC,North
2019-10-31T07:01:46Z,1572505307,2019,7,1,304.2929,304.2929,85.69194,122.40682,1031.3,-2.03,-20.94,yes,yes,yes,300434063386850,SIMB3,Dart,MOSAiC,North
2019-10-31T11:01:49Z,1572519709,2019,11,1,304.4596,304.4596,85.70022,122.29702,1031.1,-2.05,-20.88,yes,yes,yes,300434063386850,SIMB3,Dart,MOSAiC,North
2019-10-31T15:01:52Z,1572534112,2019,15,1,304.6263,304.6263,85.70579,122.19484,1030.9,-2.08,-21.69,yes,yes,yes,300434063386850,SIMB3,Dart,MOSAiC,North
2019-10-31T19:01:46Z,1572548507,2019,19,1,304.7929,304.7929,85.71434,122.06056,1030.8,-2.08,-21.88,yes,yes,yes,300434063386850,SIMB3,Dart,MOSAiC,North
2019-10-31T23:01:14Z,1572562875,2019,23,1,304.9592,304.9592,85.7237,121.96617,1030.5,-2.05,-18.19,yes,yes,yes,300434063386850,SIMB3,Dart,MOSAiC,North
2019-11-01T03:01:09Z,1572577269,2019,3,1,305.1258,305.1258,85.73015,121.89049,1030.9,-2.05,-17.12,yes,yes,yes,300434063386850,SIMB3,Dart,MOSAiC,North